QPF
0.06 0.08 0.08 0.07 0.08 0.09 0.11 0.10 0.07 0.07 0.08 0.07 0.06 0.07 0.07 0.05 0.06 0.06 0.09 0.11 0.11 0.10 0.11 0.12 0.12 0.13 0.12 0.12 0.10 0.08 0.06 0.05 0.05 0.05 0.06 0.07 0.09 0.08
0.10 0.09 0.07 0.07 0.09 0.10 0.12 0.11 0.09 0.08 0.08 0.09 0.10 0.12 0.09 0.06 0.07 0.05 0.06 0.07 0.08 0.09 0.10 0.11 0.13 0.14 0.14 0.12 0.10 0.08 0.07 0.07 0.06 0.05 0.04 0.04 0.05 0.05
0.12 0.07 0.06 0.06 0.06 0.06 0.07 0.08 0.08 0.08 0.07 0.09 0.11 0.11 0.10 0.09 0.07 0.05 0.04 0.04 0.05 0.08 0.09 0.10 0.10 0.10 0.09 0.10 0.10 0.09 0.07 0.06 0.05 0.04 0.03 0.03 0.03 0.03
0.07 0.06 0.06 0.06 0.05 0.06 0.06 0.06 0.06 0.07 0.06 0.07 0.08 0.08 0.08 0.07 0.06 0.06 0.05 0.05 0.05 0.08 0.09 0.09 0.09 0.08 0.08 0.09 0.09 0.08 0.07 0.05 0.04 0.03 0.03 0.02 0.02 0.02
0.06 0.06 0.06 0.06 0.05 0.06 0.07 0.07 0.07 0.06 0.05 0.06 0.07 0.07 0.06 0.06 0.06 0.07 0.08 0.08 0.08 0.08 0.08 0.09 0.09 0.08 0.08 0.07 0.06 0.06 0.06 0.05 0.05 0.04 0.04 0.03 0.02 0.02
0.04 0.04 0.05 0.05 0.04 0.05 0.05 0.04 0.04 0.05 0.05 0.06 0.07 0.07 0.08 0.09 0.09 0.10 0.11 0.10 0.08 0.07 0.07 0.07 0.06 0.07 0.07 0.07 0.06 0.06 0.07 0.07 0.07 0.07 0.06 0.05 0.05 0.05
0.03 0.02 0.03 0.04 0.04 0.04 0.04 0.04 0.05 0.06 0.07 0.08 0.09 0.11 0.12 0.13 0.12 0.10 0.10 0.10 0.08 0.07 0.08 0.08 0.08 0.08 0.09 0.10 0.10 0.09 0.08 0.09 0.10 0.10 0.10 0.09 0.08 0.07
0.02 0.02 0.03 0.04 0.05 0.05 0.05 0.05 0.06 0.07 0.08 0.10 0.11 0.11 0.10 0.10 0.09 0.09 0.09 0.09 0.08 0.07 0.07 0.08 0.09 0.09 0.10 0.11 0.12 0.13 0.13 0.13 0.12 0.11 0.11 0.11 0.11 0.10
0.01 0.02 0.03 0.04 0.04 0.03 0.03 0.04 0.05 0.06 0.07 0.07 0.08 0.07 0.07 0.07 0.07 0.08 0.08 0.07 0.07 0.06 0.05 0.06 0.06 0.06 0.07 0.08 0.08 0.08 0.08 0.09 0.09 0.08 0.07 0.07 0.07 0.06
0.01 0.01 0.01 0.01 0.02 0.02 0.01 0.02 0.02 0.03 0.03 0.03 0.04 0.04 0.04 0.04 0.05 0.06 0.06 0.05 0.04 0.04 0.03 0.04 0.05 0.05 0.06 0.06 0.07 0.07 0.07 0.07 0.07 0.06 0.06 0.05 0.05 0.04
0.01 0.01 0.01 0.01 0.02 0.02 0.02 0.02 0.02 0.02 0.02 0.02 0.03 0.03 0.04 0.05 0.05 0.04 0.03 0.02 0.02 0.01 0.02 0.02 0.03 0.03 0.04 0.04 0.04 0.04 0.04 0.05 0.04 0.04 0.03 0.03 0.03 0.02
0.02 0.02 0.02 0.02 0.02 0.01 0.01 0.01 0.01 0.01 0.01 0.01 0.01 0.02 0.03 0.03 0.03 0.01 0.01 0.01 0.01 0.01 0.01 0.02 0.02 0.02 0.02 0.02 0.02 0.02 0.02 0.03 0.03 0.02 0.02 0.02 0.02 0.02
0.01 0.02 0.02 0.02 0.01 0.01 0.00 0.00 0.01 0.00 0.00 0.00 0.00 0.01 0.01 0.01 0.01 0.02 0.02 0.02 0.02 0.02 0.02 0.02 0.02 0.02 0.02 0.02 0.02 0.02 0.01 0.02 0.02 0.01 0.01 0.01 0.01 0.01
0.02 0.02 0.01 0.01 0.01 0.01 0.00 0.00 0.01 0.01 0.00 0.00 0.00 0.00 0.00 0.00 0.00 0.01 0.01 0.01 0.01 0.01 0.02 0.02 0.02 0.03 0.03 0.03 0.03 0.02 0.02 0.02 0.02 0.02 0.02 0.02 0.02 0.01
0.01 0.01 0.01 0.01 0.01 0.01 0.01 0.01 0.01 0.00 0.00 0.00 0.00 0.00 0.00 0.01 0.01 0.01 0.01 0.02 0.02 0.02 0.02 0.02 0.02 0.03 0.04 0.04 0.04 0.03 0.02 0.02 0.02 0.01 0.02 0.02 0.03 0.03
0.02 0.02 0.03 0.03 0.03 0.02 0.02 0.02 0.02 0.01 0.01 0.01 0.01 0.01 0.01 0.01 0.01 0.01 0.02 0.02 0.03 0.02 0.02 0.02 0.03 0.04 0.04 0.03 0.02 0.02 0.02 0.02 0.01 0.01 0.01 0.02 0.02 0.03
0.03 0.04 0.04 0.04 0.04 0.04 0.04 0.03 0.02 0.01 0.00 0.00 0.00 0.00 0.01 0.01 0.01 0.01 0.02 0.02 0.02 0.02 0.02 0.02 0.03 0.03 0.03 0.02 0.02 0.01 0.01 0.01 0.01 0.01 0.01 0.01 0.01 0.02
0.01 0.01 0.02 0.02 0.02 0.01 0.01 0.01 0.01 0.00 0.00 0.00 0.00 0.00 0.00 0.00 0.01 0.01 0.01 0.02 0.02 0.02 0.02 0.02 0.02 0.02 0.02 0.03 0.03 0.03 0.02 0.02 0.02 0.02 0.02 0.02 0.02 0.01
0.01 0.01 0.01 0.01 0.01 0.00 0.00 0.01 0.01 0.01 0.00 0.00 0.00 0.00 0.00 0.00 0.00 0.01 0.01 0.01 0.01 0.01 0.01 0.01 0.01 0.01 0.02 0.02 0.02 0.02 0.02 0.03 0.03 0.03 0.03 0.02 0.02 0.01
0.01 0.01 0.01 0.01 0.01 0.01 0.01 0.01 0.01 0.00 0.00 0.00 0.00 0.00 0.00 0.00 0.00 0.00 0.00 0.00 0.01 0.01 0.01 0.01 0.01 0.01 0.01 0.02 0.02 0.02 0.02 0.02 0.03 0.03 0.03 0.02 0.02 0.02
0.02 0.02 0.02 0.02 0.02 0.02 0.02 0.01 0.01 0.01 0.01 0.00 0.00 0.00 0.00 0.00 0.00 0.00 0.00 0.01 0.01 0.01 0.01 0.01 0.01 0.01 0.02 0.02 0.02 0.02 0.01 0.02 0.02 0.02 0.02 0.02 0.02 0.01
0.01 0.01 0.01 0.01 0.01 0.01 0.01 0.01 0.01 0.01 0.01 0.00 0.00 0.00 0.00 0.00 0.00 0.00 0.00 0.00 0.00 0.00 0.00 0.01 0.01 0.01 0.01 0.01 0.01 0.01 0.01 0.01 0.01 0.01 0.01 0.02 0.01 0.01
0.02 0.02 0.02 0.02 0.02 0.02 0.02 0.01 0.01 0.01 0.01 0.01 0.00 0.00 0.00 0.00 0.00 0.00 0.00 0.00 0.01 0.01 0.01 0.01 0.01 0.01 0.01 0.01 0.01 0.01 0.01 0.01 0.01 0.01 0.01 0.01 0.01 0.01
MSLP
1018.74 1018.92 1019.14 1019.39 1019.62 1019.78 1019.84 1019.78 1019.61 1019.34 1019.01 1018.67 1018.34 1018.05 1017.83 1017.67 1017.57 1017.50 1017.45 1017.41 1017.36 1017.31 1017.26 1017.22 1017.19 1017.20 1017.24 1017.32 1017.44 1017.60 1017.78 1018.00 1018.25 1018.53 1018.85 1019.22 1019.65 1020.13
1018.37 1018.52 1018.73 1018.97 1019.20 1019.37 1019.46 1019.44 1019.30 1019.08 1018.78 1018.47 1018.16 1017.89 1017.67 1017.52 1017.43 1017.38 1017.35 1017.33 1017.31 1017.28 1017.23 1017.18 1017.13 1017.08 1017.06 1017.06 1017.09 1017.16 1017.28 1017.45 1017.67 1017.96 1018.31 1018.75 1019.26 1019.85
1018.07 1018.20 1018.39 1018.62 1018.84 1019.02 1019.12 1019.12 1019.02 1018.83 1018.57 1018.29 1018.00 1017.76 1017.56 1017.43 1017.36 1017.34 1017.35 1017.36 1017.37 1017.37 1017.33 1017.28 1017.20 1017.12 1017.03 1016.96 1016.92 1016.92 1016.98 1017.11 1017.32 1017.63 1018.04 1018.55 1019.15 1019.84
1017.87 1017.98 1018.15 1018.35 1018.56 1018.73 1018.84 1018.86 1018.78 1018.62 1018.40 1018.14 1017.89 1017.67 1017.50 1017.40 1017.36 1017.37 1017.42 1017.48 1017.53 1017.56 1017.55 1017.51 1017.43 1017.32 1017.20 1017.08 1016.98 1016.94 1016.97 1017.08 1017.30 1017.64 1018.11 1018.69 1019.37 1020.14
1017.77 1017.86 1018.01 1018.19 1018.38 1018.55 1018.66 1018.69 1018.63 1018.49 1018.29 1018.06 1017.83 1017.63 1017.49 1017.41 1017.40 1017.45 1017.54 1017.65 1017.75 1017.82 1017.86 1017.85 1017.78 1017.68 1017.56 1017.43 1017.32 1017.27 1017.29 1017.42 1017.67 1018.05 1018.56 1019.20 1019.95 1020.78
1017.76 1017.84 1017.97 1018.14 1018.32 1018.48 1018.59 1018.62 1018.57 1018.45 1018.27 1018.06 1017.84 1017.66 1017.54 1017.48 1017.49 1017.57 1017.70 1017.85 1018.00 1018.14 1018.23 1018.27 1018.26 1018.20 1018.11 1018.01 1017.94 1017.91 1017.97 1018.13 1018.42 1018.84 1019.39 1020.06 1020.84 1021.67
1017.81 1017.88 1018.01 1018.17 1018.34 1018.50 1018.61 1018.66 1018.62 1018.51 1018.34 1018.13 1017.93 1017.76 1017.64 1017.59 1017.62 1017.72 1017.88 1018.07 1018.27 1018.46 1018.62 1018.73 1018.79 1018.81 1018.80 1018.77 1018.76 1018.80 1018.92 1019.13 1019.46 1019.92 1020.49 1021.17 1021.92 1022.71
1017.90 1017.98 1018.10 1018.27 1018.45 1018.61 1018.73 1018.78 1018.75 1018.65 1018.49 1018.29 1018.09 1017.92 1017.80 1017.75 1017.79 1017.89 1018.07 1018.29 1018.53 1018.78 1019.00 1019.19 1019.34 1019.45 1019.54 1019.62 1019.71 1019.83 1020.03 1020.30 1020.68 1021.15 1021.71 1022.35 1023.04 1023.75
1018.00 1018.09 1018.23 1018.41 1018.60 1018.78 1018.91 1018.97 1018.95 1018.86 1018.71 1018.52 1018.33 1018.15 1018.02 1017.97 1017.99 1018.09 1018.27 1018.50 1018.77 1019.05 1019.34 1019.60 1019.84 1020.06 1020.25 1020.44 1020.64 1020.86 1021.14 1021.47 1021.88 1022.35 1022.88 1023.46 1024.05 1024.64
1018.10 1018.21 1018.37 1018.57 1018.78 1018.96 1019.11 1019.19 1019.18 1019.11 1018.97 1018.79 1018.60 1018.42 1018.29 1018.22 1018.23 1018.31 1018.47 1018.70 1018.97 1019.28 1019.60 1019.92 1020.24 1020.54 1020.84 1021.13 1021.43 1021.75 1022.09 1022.48 1022.89 1023.35 1023.83 1024.32 1024.80 1025.24
1018.19 1018.33 1018.51 1018.72 1018.94 1019.14 1019.30 1019.39 1019.41 1019.35 1019.23 1019.07 1018.89 1018.72 1018.59 1018.51 1018.50 1018.56 1018.70 1018.90 1019.16 1019.46 1019.79 1020.14 1020.50 1020.87 1021.24 1021.61 1021.99 1022.37 1022.77 1023.18 1023.60 1024.02 1024.43 1024.83 1025.19 1025.51
1018.30 1018.45 1018.64 1018.86 1019.09 1019.29 1019.45 1019.55 1019.58 1019.55 1019.45 1019.32 1019.16 1019.01 1018.89 1018.81 1018.79 1018.83 1018.93 1019.10 1019.32 1019.59 1019.91 1020.25 1020.62 1021.02 1021.42 1021.84 1022.26 1022.69 1023.11 1023.53 1023.93 1024.31 1024.66 1024.97 1025.23 1025.43
1018.42 1018.58 1018.78 1018.99 1019.21 1019.40 1019.56 1019.66 1019.70 1019.68 1019.61 1019.51 1019.39 1019.28 1019.18 1019.11 1019.08 1019.10 1019.18 1019.30 1019.47 1019.70 1019.96 1020.28 1020.62 1021.00 1021.41 1021.83 1022.27 1022.70 1023.13 1023.53 1023.90 1024.24 1024.53 1024.76 1024.94 1025.06
1018.59 1018.75 1018.93 1019.13 1019.32 1019.48 1019.62 1019.70 1019.74 1019.74 1019.71 1019.64 1019.57 1019.50 1019.43 1019.39 1019.37 1019.38 1019.42 1019.50 1019.61 1019.78 1019.98 1020.24 1020.53 1020.87 1021.25 1021.65 1022.06 1022.47 1022.88 1023.25 1023.59 1023.88 1024.12 1024.30 1024.42 1024.49
1018.82 1018.96 1019.12 1019.27 1019.42 1019.55 1019.65 1019.71 1019.75 1019.75 1019.74 1019.72 1019.70 1019.67 1019.65 1019.63 1019.63 1019.63 1019.65 1019.68 1019.75 1019.84 1019.98 1020.16 1020.39 1020.67 1020.99 1021.35 1021.72 1022.09 1022.46 1022.80 1023.09 1023.34 1023.54 1023.68 1023.77 1023.81
1019.10 1019.22 1019.34 1019.46 1019.55 1019.63 1019.68 1019.72 1019.73 1019.75 1019.75 1019.77 1019.78 1019.80 1019.82 1019.83 1019.84 1019.85 1019.84 1019.84 1019.86 1019.89 1019.96 1020.07 1020.24 1020.45 1020.71 1021.01 1021.33 1021.66 1021.98 1022.27 1022.52 1022.73 1022.89 1023.00 1023.07 1023.10
1019.44 1019.53 1019.61 1019.68 1019.72 1019.75 1019.75 1019.75 1019.75 1019.75 1019.77 1019.80 1019.85 1019.90 1019.95 1019.99 1020.01 1020.02 1020.00 1019.97 1019.94 1019.92 1019.94 1019.99 1020.09 1020.25 1020.45 1020.70 1020.97 1021.24 1021.51 1021.76 1021.97 1022.14 1022.26 1022.34 1022.39 1022.41
1019.79 1019.86 1019.91 1019.94 1019.93 1019.91 1019.87 1019.83 1019.81 1019.80 1019.82 1019.86 1019.92 1019.99 1020.06 1020.11 1020.13 1020.13 1020.09 1020.04 1019.98 1019.93 1019.90 1019.92 1019.98 1020.09 1020.25 1020.45 1020.67 1020.90 1021.12 1021.32 1021.48 1021.60 1021.68 1021.73 1021.75 1021.76
1020.13 1020.18 1020.21 1020.20 1020.16 1020.10 1020.03 1019.96 1019.91 1019.89 1019.90 1019.94 1020.00 1020.07 1020.13 1020.18 1020.19 1020.17 1020.13 1020.05 1019.97 1019.90 1019.85 1019.84 1019.88 1019.97 1020.10 1020.26 1020.45 1020.64 1020.81 1020.96 1021.06 1021.14 1021.17 1021.18 1021.17 1021.15
1020.40 1020.44 1020.46 1020.43 1020.37 1020.28 1020.19 1020.10 1020.04 1020.00 1019.99 1020.02 1020.06 1020.11 1020.16 1020.19 1020.18 1020.15 1020.08 1020.00 1019.91 1019.83 1019.78 1019.76 1019.79 1019.87 1019.98 1020.12 1020.28 1020.42 1020.55 1020.64 1020.70 1020.72 1020.70 1020.66 1020.61 1020.56
1020.55 1020.59 1020.60 1020.56 1020.49 1020.40 1020.30 1020.20 1020.12 1020.07 1020.05 1020.06 1020.08 1020.10 1020.12 1020.12 1020.09 1020.04 1019.96 1019.87 1019.78 1019.71 1019.66 1019.65 1019.69 1019.76 1019.87 1019.99 1020.11 1020.22 1020.30 1020.34 1020.34 1020.30 1020.23 1020.14 1020.04 1019.96
1020.54 1020.58 1020.59 1020.55 1020.48 1020.39 1020.29 1020.19 1020.11 1020.05 1020.02 1020.00 1019.99 1019.99 1019.98 1019.95 1019.90 1019.83 1019.75 1019.66 1019.58 1019.52 1019.49 1019.49 1019.54 1019.61 1019.71 1019.82 1019.91 1019.98 1020.01 1020.00 1019.94 1019.84 1019.72 1019.59 1019.46 1019.35
1020.37 1020.40 1020.40 1020.36 1020.30 1020.21 1020.12 1020.03 1019.95 1019.88 1019.84 1019.80 1019.78 1019.75 1019.72 1019.67 1019.60 1019.52 1019.44 1019.36 1019.29 1019.25 1019.24 1019.26 1019.32 1019.39 1019.48 1019.56 1019.62 1019.65 1019.63 1019.57 1019.46 1019.32 1019.16 1018.99 1018.84 1018.71
Thickness
5724 5723 5721 5721 5719 5718 5716 5713 5707 5702 5701 5700 5699 5699 5698 5696 5695 5693 5691 5690 5688 5686 5684 5682 5679 5676 5673 5670 5667 5663 5660 5656 5653 5650 5647 5644 5642 5639
5722 5720 5719 5718 5717 5716 5714 5712 5710 5706 5700 5699 5697 5695 5693 5691 5689 5687 5685 5683 5681 5679 5676 5674 5671 5668 5665 5662 5658 5655 5651 5648 5645 5642 5639 5636 5633 5629
5719 5718 5717 5716 5714 5713 5712 5710 5707 5705 5699 5696 5693 5690 5688 5685 5682 5680 5678 5676 5673 5671 5668 5665 5662 5659 5656 5653 5649 5646 5643 5639 5635 5633 5629 5626 5623 5620
5716 5715 5714 5713 5711 5710 5708 5707 5704 5702 5698 5692 5688 5685 5682 5679 5676 5673 5670 5667 5664 5661 5659 5656 5653 5650 5647 5643 5640 5637 5633 5630 5626 5623 5620 5616 5612 5608
5713 5711 5710 5709 5707 5706 5704 5703 5700 5698 5695 5690 5684 5680 5676 5672 5669 5665 5662 5658 5655 5652 5649 5646 5643 5641 5638 5635 5631 5628 5624 5621 5617 5614 5610 5606 5601 5597
5709 5708 5707 5705 5703 5702 5700 5698 5696 5693 5689 5685 5679 5674 5670 5665 5662 5657 5652 5649 5646 5643 5640 5637 5633 5630 5628 5625 5622 5619 5615 5611 5607 5604 5600 5596 5591 5586
5703 5702 5702 5701 5699 5698 5696 5694 5691 5687 5683 5679 5674 5669 5663 5659 5655 5651 5646 5641 5636 5633 5630 5627 5623 5620 5617 5614 5611 5608 5605 5601 5597 5594 5589 5585 5581 5576
5697 5696 5695 5694 5694 5692 5690 5689 5686 5683 5679 5675 5669 5664 5659 5654 5649 5644 5638 5634 5629 5624 5621 5616 5613 5610 5607 5604 5600 5597 5594 5590 5587 5583 5578 5574 5570 5566
5691 5689 5689 5687 5686 5684 5683 5681 5679 5676 5674 5671 5665 5660 5655 5650 5644 5638 5633 5629 5624 5618 5613 5608 5604 5601 5597 5593 5591 5587 5584 5580 5576 5572 5568 5564 5560 5555
5684 5682 5681 5679 5678 5676 5675 5672 5669 5667 5665 5663 5659 5655 5651 5645 5640 5634 5627 5620 5614 5609 5606 5601 5596 5593 5589 5585 5582 5578 5574 5571 5567 5562 5558 5554 5550 5545
5677 5675 5673 5671 5670 5668 5667 5663 5660 5657 5655 5653 5650 5646 5642 5637 5632 5626 5619 5614 5608 5602 5597 5594 5589 5585 5580 5577 5573 5569 5565 5561 5557 5553 5549 5545 5540 5536
5670 5668 5666 5664 5662 5660 5658 5656 5652 5648 5646 5643 5640 5636 5632 5627 5623 5619 5615 5609 5603 5596 5591 5586 5582 5577 5573 5568 5564 5560 5556 5552 5548 5544 5540 5536 5531 5527
5664 5660 5657 5655 5653 5651 5649 5647 5643 5639 5636 5633 5629 5625 5621 5617 5613 5609 5605 5602 5597 5592 5586 5580 5575 5570 5567 5561 5557 5552 5548 5544 5540 5535 5531 5527 5523 5519
5657 5653 5650 5647 5645 5642 5639 5636 5633 5630 5627 5623 5619 5614 5610 5606 5602 5599 5595 5591 5588 5584 5579 5574 5569 5564 5559 5555 5550 5545 5540 5536 5532 5528 5524 5520 5516 5512
5649 5645 5642 5639 5636 5632 5629 5626 5623 5620 5617 5613 5608 5603 5599 5595 5591 5588 5585 5581 5577 5573 5569 5565 5561 5556 5552 5548 5543 5538 5534 5529 5524 5520 5516 5513 5509 5505
5640 5636 5632 5629 5626 5622 5619 5615 5612 5609 5606 5603 5598 5593 5589 5585 5582 5579 5575 5572 5568 5563 5558 5555 5551 5548 5544 5539 5535 5531 5527 5523 5519 5514 5510 5507 5503 5500
5631 5627 5623 5619 5616 5612 5608 5605 5602 5598 5595 5591 5588 5584 5580 5576 5572 5568 5565 5562 5559 5554 5550 5545 5541 5538 5534 5531 5528 5524 5520 5516 5512 5508 5504 5503 5500 5497
5622 5619 5614 5610 5607 5603 5600 5596 5592 5589 5586 5582 5578 5575 5571 5567 5563 5558 5555 5552 5549 5545 5541 5537 5533 5530 5526 5522 5519 5516 5513 5509 5505 5501 5498 5497 5496 5493
5614 5610 5606 5602 5598 5595 5591 5588 5584 5580 5576 5573 5569 5565 5562 5558 5554 5550 5546 5543 5540 5536 5532 5528 5525 5523 5521 5519 5514 5508 5506 5503 5499 5496 5493 5491 5490 5489
5605 5602 5598 5593 5590 5586 5583 5579 5575 5571 5567 5564 5560 5556 5552 5549 5546 5542 5538 5534 5531 5528 5524 5520 5517 5515 5513 5511 5508 5503 5499 5496 5493 5491 5489 5486 5484 5483
5596 5592 5589 5585 5581 5577 5574 5570 5567 5563 5559 5555 5551 5547 5544 5540 5537 5534 5530 5525 5522 5520 5517 5514 5510 5506 5502 5499 5499 5498 5494 5490 5488 5485 5483 5482 5481 5479
5588 5585 5581 5576 5573 5569 5565 5562 5558 5555 5551 5547 5544 5540 5536 5532 5530 5526 5523 5519 5516 5513 5510 5507 5501 5498 5495 5495 5494 5492 5489 5485 5482 5480 5478 5476 5475 5475
5580 5577 5573 5569 5565 5561 5557 5554 5550 5547 5543 5540 5536 5532 5529 5525 5522 5519 5516 5512 5509 5505 5502 5499 5495 5491 5489 5488 5486 5484 5482 5479 5478 5476 5475 5473 5471 5469